Location: Newark
(16.3678°N, 77.8722°E)
Time: 07:57:16
(UTC+00:00)

Altair - All Passes

Search period start: 16 December 2019 00:00
Search period end: 26 December 2019 00:00
Orbit: 1502 x 1682 km, 47.2° (Epoch: 16 December)

Date Brightness Start Highest point End Pass type
(mag) Time Alt. Az. Time Alt. Az. Time Alt. Az.
16 Dec - 10:16:38 10° S 10:23:37 21° SE 10:30:25 10° E daylight
16 Dec - 12:17:55 10° SW 12:27:58 84° NW 12:37:41 10° NE daylight
16 Dec - 14:26:32 10° W 14:33:37 22° NW 14:40:33 10° NNE visible
16 Dec - 18:50:19 10° N 18:52:14 11° NNE 18:54:09 10° NE night (unlit)
16 Dec - 20:50:42 10° NNW 20:59:13 41° NE 21:07:44 10° ESE visible
16 Dec - 22:55:11 10° WNW 23:03:46 46° SW 23:12:31 10° SSE visible
17 Dec - 09:52:08 10° SSE 09:58:26 18° SE 10:04:36 10° E daylight
17 Dec - 11:52:42 10° SW 12:02:47 89° SE 12:12:32 10° NE daylight
17 Dec - 14:00:45 10° W 14:08:16 24° NW 14:15:37 10° NNE visible
17 Dec - 20:25:40 10° NNW 20:34:00 37° NE 20:42:18 10° ESE visible
17 Dec - 22:29:53 10° NW 22:38:39 52° SW 22:47:34 10° SSE visible
18 Dec - 09:27:48 10° SSE 09:33:16 16° SE 09:38:38 10° E daylight
18 Dec - 11:27:31 10° SW 11:37:36 81° SE 11:47:22 10° NE daylight
18 Dec - 13:35:02 10° W 13:42:57 27° NW 13:50:41 10° NNE visible
18 Dec - 20:00:39 10° NNW 20:08:46 34° NE 20:16:49 10° ESE visible
18 Dec - 22:04:37 10° NW 22:13:32 58° SW 22:22:34 10° SSE visible
19 Dec - 09:03:44 10° SSE 09:08:05 13° SE 09:12:22 10° E daylight
19 Dec - 11:02:22 10° SSW 11:12:26 74° SE 11:22:10 10° NE daylight
19 Dec - 13:09:22 10° W 13:17:39 29° NW 13:25:42 10° NNE visible
19 Dec - 19:35:39 10° NNW 19:43:31 31° NE 19:51:18 10° E night (unlit)
19 Dec - 21:39:23 10° NW 21:48:25 65° SW 21:57:32 10° SSE visible
20 Dec - 08:40:15 10° SE 08:42:53 11° SE 08:45:30 10° ESE daylight
20 Dec - 10:37:15 10° SSW 10:47:15 67° SE 10:56:57 10° NE daylight
20 Dec - 12:43:44 10° W 12:52:20 32° NW 13:00:43 10° NNE visible
20 Dec - 19:10:40 10° NNW 19:18:15 28° NE 19:25:45 10° E night (unlit)
20 Dec - 21:14:10 10° NW 21:23:18 72° SW 21:32:29 10° SSE visible
20 Dec - 23:24:41 10° WSW 23:27:25 12° SW 23:30:11 10° SW visible
21 Dec - 10:12:10 10° SSW 10:22:05 60° SE 10:31:42 10° NE daylight
21 Dec - 12:18:09 10° WSW 12:27:03 36° NW 12:35:44 10° NNE daylight
21 Dec - 18:45:41 10° NNW 18:52:58 25° NE 19:00:09 10° E night (unlit)
21 Dec - 20:48:59 10° NW 20:58:10 80° SW 21:07:23 10° SE visible
21 Dec - 22:58:06 10° W 23:02:17 14° SW 23:06:30 10° SSW visible
22 Dec - 09:47:08 10° SSW 09:56:55 54° SE 10:06:25 10° NE daylight
22 Dec - 11:52:37 10° WSW 12:01:47 39° NW 12:10:43 10° NNE daylight
22 Dec - 14:07:05 10° NNW 14:09:06 11° NNW 14:11:06 10° N visible
22 Dec - 18:20:43 10° NNW 18:27:40 23° NE 18:34:30 10° E night (unlit)
22 Dec - 20:23:49 10° NW 20:33:02 88° SW 20:42:16 10° SE visible
22 Dec - 22:32:00 10° W 22:37:08 16° SW 22:42:21 10° SSW visible
23 Dec - 09:22:08 10° SSW 09:31:45 48° SE 09:41:07 10° ENE daylight
23 Dec - 11:27:08 10° WSW 11:36:31 43° NW 11:45:41 10° NNE daylight
23 Dec - 13:40:24 10° NW 13:43:37 12° NNW 13:46:47 10° N visible
23 Dec - 17:55:46 10° NNW 18:02:20 21° NNE 18:08:49 10° ENE night (unlit)
23 Dec - 19:58:40 10° NW 20:07:54 84° NE 20:17:06 10° SE visible
23 Dec - 22:06:07 10° W 22:12:01 19° SW 22:18:00 10° SSW visible
24 Dec - 08:57:11 10° SSW 09:06:34 43° SE 09:15:46 10° ENE daylight
24 Dec - 11:01:41 10° WSW 11:11:16 48° NW 11:20:38 10° NNE daylight
24 Dec - 13:14:03 10° NW 13:18:09 13° NNW 13:22:11 10° N visible
24 Dec - 17:30:50 10° N 17:37:00 19° NNE 17:43:04 10° ENE night (unlit)
24 Dec - 19:33:31 10° NW 19:42:45 76° NE 19:51:55 10° SE night (unlit)
24 Dec - 21:40:23 10° W 21:46:54 22° SW 21:53:29 10° S visible
25 Dec - 08:32:16 10° SSW 08:41:24 39° SE 08:50:23 10° ENE daylight
25 Dec - 10:36:16 10° WSW 10:46:02 53° NW 10:55:34 10° NNE daylight
25 Dec - 12:47:51 10° WNW 12:52:41 14° NNW 12:57:27 10° N visible
25 Dec - 17:05:56 10° N 17:11:38 17° NNE 17:17:16 10° ENE night (unlit)
25 Dec - 19:08:24 10° NW 19:17:36 69° NE 19:26:42 10° SE night (unlit)
25 Dec - 21:14:45 10° WNW 21:21:46 25° SW 21:28:52 10° S visible
